2016-06-29 00:00:19 r, 18.46m,0000000003Hz,0000125624c,0000000.273s, 035.7C,00002195
2016-06-29 00:10:21 r, 18.46m,0000000004Hz,0000125670c,0000000.273s, 035.7C,00002195
2016-06-29 00:20:20 r, 18.46m,0000000003Hz,0000125529c,0000000.272s, 035.7C,00002195
2016-06-29 00:30:21 r, 18.50m,0000000003Hz,0000130624c,0000000.283s, 035.4C,00002195
2016-06-29 00:40:19 r, 18.52m,0000000003Hz,0000133316c,0000000.289s, 035.4C,00002195
2016-06-29 00:50:20 r, 18.51m,0000000003Hz,0000132073c,0000000.287s, 035.4C,00002195
2016-06-29 01:00:19 r, 18.52m,0000000004Hz,0000133363c,0000000.289s, 035.1C,00002195
2016-06-29 01:10:19 r, 18.50m,0000000003Hz,0000130521c,0000000.283s, 035.1C,00002195
2016-06-29 01:20:20 r, 18.46m,0000000004Hz,0000125680c,0000000.273s, 035.1C,00002195
2016-06-29 01:30:20 r, 18.46m,0000000003Hz,0000125783c,0000000.273s, 035.1C,00002195
2016-06-29 01:40:19 r, 17.97m,0000000006Hz,0000080844c,0000000.175s, 035.1C,00002195
2016-06-29 01:50:20 r, 17.44m,0000000010Hz,0000048935c,0000000.106s, 035.1C,00002195
2016-06-29 02:00:19 r, 17.01m,0000000014Hz,0000033325c,0000000.072s, 035.1C,00002195
2016-06-29 02:10:22 r, 18.25m,0000000005Hz,0000103447c,0000000.224s, 035.1C,00002195
2016-06-29 02:20:19 r, 18.43m,0000000004Hz,0000122926c,0000000.267s, 035.1C,00002195
2016-06-29 02:30:19 r, 18.22m,0000000005Hz,0000101211c,0000000.220s, 035.1C,00002195
2016-06-29 02:40:20 r, 18.39m,0000000004Hz,0000118233c,0000000.257s, 034.8C,00002195
2016-06-29 02:50:19 r, 18.39m,0000000004Hz,0000118780c,0000000.258s, 034.8C,00002195
2016-06-29 03:00:19 r, 18.37m,0000000004Hz,0000116294c,0000000.252s, 034.4C,00002195
2016-06-29 03:10:21 r, 18.37m,0000000004Hz,0000116120c,0000000.252s, 034.4C,00002195
2016-06-29 03:20:20 r, 18.32m,0000000004Hz,0000111208c,0000000.241s, 034.1C,00002195
2016-06-29 03:30:19 r, 18.27m,0000000004Hz,0000106316c,0000000.231s, 034.1C,00002195
2016-06-29 03:40:19 r, 18.06m,0000000005Hz,0000087395c,0000000.190s, 034.1C,00002195
2016-06-29 03:50:20 r, 17.88m,0000000006Hz,0000074101c,0000000.161s, 033.8C,00002195
2016-06-29 04:00:19 r, 17.45m,0000000009Hz,0000049823c,0000000.108s, 033.8C,00002195
2016-06-29 04:10:19 r, 16.80m,0000000017Hz,0000027448c,0000000.060s, 033.8C,00002195
2016-06-29 04:20:20 r, 15.87m,0000000040Hz,0000011631c,0000000.025s, 033.5C,00002195
2016-06-29 04:30:19 r, 14.60m,0000000129Hz,0000000000c,0000000.000s, 033.5C,00002195
2016-06-29 04:40:19 r, 13.11m,0000000504Hz,0000000000c,0000000.000s, 033.1C,00002195
2016-06-29 04:50:19 r, 11.68m,0000001901Hz,0000000000c,0000000.000s, 033.1C,00002195
2016-06-29 05:00:19 r, 10.29m,0000006825Hz,0000000000c,0000000.000s, 033.1C,00002195
2016-06-29 05:10:19 r, 09.05m,0000021347Hz,0000000000c,0000000.000s, 033.1C,00002195
2016-06-29 05:20:19 r, 07.98m,0000057088Hz,0000000000c,0000000.000s, 032.8C,00002195
2016-06-29 05:30:19 r, 07.10m,0000128042Hz,0000000000c,0000000.000s, 032.8C,00002195
2016-06-29 05:40:19 r, 06.66m,0000192158Hz,0000000000c,0000000.000s, 032.8C,00002195
2016-06-29 05:50:22 r, 06.32m,0000262757Hz,0000000000c,0000000.000s, 032.8C,00002195
2016-06-29 06:00:19 r, 00.00m,0000476577Hz,0000000000c,0000000.000s, 032.8C,00002195
2016-06-29 06:10:19 r, 00.00m,0000564459Hz,0000000000c,0000000.000s, 032.8C,00002195
2016-06-29 06:20:21 r, 00.00m,0000564417Hz,0000000000c,0000000.000s, 033.1C,00002195
2016-06-29 06:30:19 r, 00.00m,0000564341Hz,0000000000c,0000000.000s, 033.1C,00002195
2016-06-29 06:40:20 r, 00.00m,0000564367Hz,0000000000c,0000000.000s, 033.1C,00002195
2016-06-29 06:50:19 r, 00.00m,0000564362Hz,0000000000c,0000000.000s, 033.1C,00002195
2016-06-29 07:00:19 r, 00.00m,0000564384Hz,0000000000c,0000000.000s, 033.5C,00002195
2016-06-29 07:10:21 r, 00.00m,0000564450Hz,0000000000c,0000000.000s, 033.8C,00002195
2016-06-29 07:20:19 r, 00.00m,0000564448Hz,0000000000c,0000000.000s, 033.8C,00002195
2016-06-29 07:30:19 r, 00.00m,0000564494Hz,0000000000c,0000000.000s, 034.1C,00002195
2016-06-29 07:40:21 r, 00.00m,0000564529Hz,0000000000c,0000000.000s, 034.4C,00002195
2016-06-29 07:50:19 r, 00.00m,0000564559Hz,0000000000c,0000000.000s, 034.8C,00002195
2016-06-29 08:00:19 r, 00.00m,0000564476Hz,0000000000c,0000000.000s, 034.8C,00002195
2016-06-29 08:10:20 r, 00.00m,0000564579Hz,0000000000c,0000000.000s, 035.1C,00002195
2016-06-29 08:20:19 r, 00.00m,0000564656Hz,0000000000c,0000000.000s, 035.4C,00002195
2016-06-29 08:30:19 r, 00.00m,0000564614Hz,0000000000c,0000000.000s, 035.7C,00002195
2016-06-29 08:40:19 r, 00.00m,0000564690Hz,0000000000c,0000000.000s, 036.0C,00002195
2016-06-29 08:50:21 r, 00.00m,0000564630Hz,0000000000c,0000000.000s, 036.4C,00002195
2016-06-29 09:00:19 r, 00.00m,0000564763Hz,0000000000c,0000000.000s, 036.7C,00002195
2016-06-29 09:10:20 r, 00.00m,0000564959Hz,0000000000c,0000000.000s, 038.0C,00002195
2016-06-29 09:20:21 r, 00.00m,0000565250Hz,0000000000c,0000000.000s, 041.2C,00002195
2016-06-29 09:30:19 r, 00.00m,0000565476Hz,0000000000c,0000000.000s, 043.8C,00002195
2016-06-29 09:40:19 r, 00.00m,0000565545Hz,0000000000c,0000000.000s, 045.1C,00002195
2016-06-29 09:50:19 r, 00.00m,0000565692Hz,0000000000c,0000000.000s, 047.0C,00002195
2016-06-29 10:00:19 r, 00.00m,0000565812Hz,0000000000c,0000000.000s, 049.6C,00002195
2016-06-29 10:10:19 r, 00.00m,0000565523Hz,0000000000c,0000000.000s, 047.3C,00002195
2016-06-29 10:20:19 r, 00.00m,0000565438Hz,0000000000c,0000000.000s, 045.4C,00002195
2016-06-29 10:30:19 r, 00.00m,0000565209Hz,0000000000c,0000000.000s, 043.5C,00002195
2016-06-29 10:40:20 r, 00.00m,0000565499Hz,0000000000c,0000000.000s, 045.1C,00002195
2016-06-29 10:50:20 r, 00.00m,0000565675Hz,0000000000c,0000000.000s, 048.0C,00002195
2016-06-29 11:00:19 r, 00.00m,0000565836Hz,0000000000c,0000000.000s, 049.6C,00002195
2016-06-29 11:10:19 r, 00.00m,0000565955Hz,0000000000c,0000000.000s, 051.2C,00002195
2016-06-29 11:20:19 r, 00.00m,0000565976Hz,0000000000c,0000000.000s, 053.8C,00002195
2016-06-29 11:30:19 r, 00.00m,0000565857Hz,0000000000c,0000000.000s, 051.8C,00002195
2016-06-29 11:40:19 r, 00.00m,0000565723Hz,0000000000c,0000000.000s, 049.9C,00002195
2016-06-29 11:50:19 r, 00.00m,0000565749Hz,0000000000c,0000000.000s, 050.6C,00002195
2016-06-29 12:00:19 r, 00.00m,0000565739Hz,0000000000c,0000000.000s, 050.2C,00002195
2016-06-29 12:10:19 r, 00.00m,0000565704Hz,0000000000c,0000000.000s, 049.6C,00002195
2016-06-29 12:20:19 r, 00.00m,0000565848Hz,0000000000c,0000000.000s, 051.8C,00002195
2016-06-29 12:30:19 r, 00.00m,0000565965Hz,0000000000c,0000000.000s, 053.1C,00002195
2016-06-29 12:40:19 r, 00.00m,0000565734Hz,0000000000c,0000000.000s, 051.2C,00002195
2016-06-29 12:50:19 r, 00.00m,0000565890Hz,0000000000c,0000000.000s, 052.5C,00002195
2016-06-29 13:00:19 r, 00.00m,0000565963Hz,0000000000c,0000000.000s, 054.7C,00002195
2016-06-29 13:10:22 r, 00.00m,0000566151Hz,0000000000c,0000000.000s, 055.4C,00002195
2016-06-29 13:20:19 r, 00.00m,0000566170Hz,0000000000c,0000000.000s, 055.7C,00002195
2016-06-29 13:30:19 r, 00.00m,0000566108Hz,0000000000c,0000000.000s, 055.7C,00002195
2016-06-29 13:40:20 r, 00.00m,0000566109Hz,0000000000c,0000000.000s, 054.7C,00002195
2016-06-29 13:50:19 r, 00.00m,0000566056Hz,0000000000c,0000000.000s, 056.0C,00002195
2016-06-29 14:00:19 r, 00.00m,0000566131Hz,0000000000c,0000000.000s, 056.4C,00002195
2016-06-29 14:10:20 r, 00.00m,0000566130Hz,0000000000c,0000000.000s, 057.0C,00002195
2016-06-29 14:20:20 r, 00.00m,0000565980Hz,0000000000c,0000000.000s, 055.4C,00002195
2016-06-29 14:30:19 r, 00.00m,0000565971Hz,0000000000c,0000000.000s, 056.4C,00002195
2016-06-29 14:40:19 r, 00.00m,0000565902Hz,0000000000c,0000000.000s, 054.1C,00002195
2016-06-29 14:50:20 r, 00.00m,0000565927Hz,0000000000c,0000000.000s, 055.1C,00002195
2016-06-29 15:00:19 r, 00.00m,0000566095Hz,0000000000c,0000000.000s, 057.6C,00002195
2016-06-29 15:10:19 r, 00.00m,0000565962Hz,0000000000c,0000000.000s, 055.7C,00002195
2016-06-29 15:20:19 r, 00.00m,0000565713Hz,0000000000c,0000000.000s, 052.2C,00002195
2016-06-29 15:30:19 r, 00.00m,0000565951Hz,0000000000c,0000000.000s, 055.1C,00002195
2016-06-29 15:40:19 r, 00.00m,0000566106Hz,0000000000c,0000000.000s, 058.3C,00002195
2016-06-29 15:50:19 r, 00.00m,0000565832Hz,0000000000c,0000000.000s, 054.7C,00002195
2016-06-29 16:00:19 r, 00.00m,0000565529Hz,0000000000c,0000000.000s, 050.9C,00002195
2016-06-29 16:10:19 r, 00.00m,0000565670Hz,0000000000c,0000000.000s, 051.2C,00002195
2016-06-29 16:20:19 r, 00.00m,0000565682Hz,0000000000c,0000000.000s, 051.2C,00002195
2016-06-29 16:30:20 r, 00.00m,0000565855Hz,0000000000c,0000000.000s, 052.8C,00002195
2016-06-29 16:40:19 r, 00.00m,0000565804Hz,0000000000c,0000000.000s, 052.2C,00002195
2016-06-29 16:50:20 r, 00.00m,0000565717Hz,0000000000c,0000000.000s, 051.8C,00002195
2016-06-29 17:00:21 r, 00.00m,0000565652Hz,0000000000c,0000000.000s, 051.2C,00002195
2016-06-29 17:10:19 r, 00.00m,0000565600Hz,0000000000c,0000000.000s, 049.6C,00002195
2016-06-29 17:20:19 r, 00.00m,0000565517Hz,0000000000c,0000000.000s, 048.9C,00002195
2016-06-29 17:30:19 r, 00.00m,0000565458Hz,0000000000c,0000000.000s, 048.3C,00002195
2016-06-29 17:40:19 r, 00.00m,0000565426Hz,0000000000c,0000000.000s, 047.3C,00002195
2016-06-29 17:50:20 r, 00.00m,0000565352Hz,0000000000c,0000000.000s, 046.4C,00002195
2016-06-29 18:00:22 r, 00.00m,0000565347Hz,0000000000c,0000000.000s, 045.7C,00002195
2016-06-29 18:10:19 r, 00.00m,0000565236Hz,0000000000c,0000000.000s, 045.7C,00002195
2016-06-29 18:20:19 r, 00.00m,0000565344Hz,0000000000c,0000000.000s, 046.4C,00002195
2016-06-29 18:30:20 r, 00.00m,0000565368Hz,0000000000c,0000000.000s, 047.0C,00002195
2016-06-29 18:40:20 r, 00.00m,0000565477Hz,0000000000c,0000000.000s, 047.3C,00002195
2016-06-29 18:50:20 r, 00.00m,0000565458Hz,0000000000c,0000000.000s, 048.3C,00002195
2016-06-29 19:00:20 r, 00.00m,0000565455Hz,0000000000c,0000000.000s, 048.0C,00002195
2016-06-29 19:10:20 r, 00.00m,0000565097Hz,0000000000c,0000000.000s, 044.1C,00002195
2016-06-29 19:20:20 r, 00.00m,0000564936Hz,0000000000c,0000000.000s, 042.2C,00002195
2016-06-29 19:30:20 r, 00.00m,0000564860Hz,0000000000c,0000000.000s, 041.2C,00002195
2016-06-29 19:40:20 r, 00.00m,0000564818Hz,0000000000c,0000000.000s, 039.9C,00002195
2016-06-29 19:50:20 r, 00.00m,0000564752Hz,0000000000c,0000000.000s, 038.6C,00002195
2016-06-29 20:00:20 r, 00.00m,0000541441Hz,0000000000c,0000000.000s, 038.0C,00002195
2016-06-29 20:10:20 r, 06.63m,0000198957Hz,0000000000c,0000000.000s, 037.0C,00002195
2016-06-29 20:20:22 r, 00.00m,0000564368Hz,0000000000c,0000000.000s, 035.4C,00002195
2016-06-29 20:30:20 r, 00.00m,0000564318Hz,0000000000c,0000000.000s, 034.1C,00002195
2016-06-29 20:40:20 r, 00.00m,0000513926Hz,0000000000c,0000000.000s, 033.5C,00002195
2016-06-29 20:50:20 r, 06.11m,0000319975Hz,0000000000c,0000000.000s, 033.5C,00002195
2016-06-29 21:00:20 r, 05.89m,0000390338Hz,0000000000c,0000000.000s, 033.5C,00002195
2016-06-29 21:10:20 r, 05.91m,0000386673Hz,0000000000c,0000000.000s, 033.8C,00002195
2016-06-29 21:20:20 r, 06.32m,0000262603Hz,0000000000c,0000000.000s, 033.8C,00002195
2016-06-29 21:30:20 r, 06.76m,0000176581Hz,0000000000c,0000000.000s, 033.5C,00002195
2016-06-29 21:40:20 r, 07.65m,0000077717Hz,0000000000c,0000000.000s, 033.5C,00002195
2016-06-29 21:50:20 r, 08.60m,0000032501Hz,0000000000c,0000000.000s, 033.1C,00002195
2016-06-29 22:00:20 r, 09.78m,0000010957Hz,0000000000c,0000000.000s, 032.8C,00002195
2016-06-29 22:10:20 r, 11.14m,0000003113Hz,0000000000c,0000000.000s, 032.5C,00002195
2016-06-29 22:20:20 r, 12.59m,0000000818Hz,0000000000c,0000000.000s, 032.2C,00002195
2016-06-29 22:30:20 r, 14.07m,0000000210Hz,0000000000c,0000000.000s, 032.2C,00002195
2016-06-29 22:40:20 r, 15.42m,0000000061Hz,0000007634c,0000000.017s, 031.9C,00002195
2016-06-29 22:50:20 r, 16.45m,0000000023Hz,0000019859c,0000000.043s, 031.9C,00002195
2016-06-29 23:00:21 r, 17.22m,0000000011Hz,0000040398c,0000000.088s, 031.9C,00002195
2016-06-29 23:10:20 r, 17.81m,0000000007Hz,0000068954c,0000000.150s, 031.9C,00002195
2016-06-29 23:20:20 r, 18.18m,0000000005Hz,0000096314c,0000000.209s, 031.5C,00002195
2016-06-29 23:30:20 r, 18.41m,0000000004Hz,0000120257c,0000000.261s, 031.5C,00002195
2016-06-29 23:40:20 r, 18.55m,0000000003Hz,0000137198c,0000000.298s, 031.5C,00002195
2016-06-29 23:50:20 r, 18.64m,0000000003Hz,0000147834c,0000000.321s, 031.5C,00002195
